EZY34EP EGCC-ESGG

Flight info

Callsign EZY34EP
Flight time 1h 31m
Altitude 37000
Route SONEX L975 DESIG L603 LAMIX UT29 LIBSO UL975 ROPAL DCT LESRA L975 GOLUM N866 AAL N607 MAKUR
Aircraft A320/M-SDE3FGHIRWY/LB1

Departure

Time 2026-04-30 20:01
Airport Manchester Airport (EGCC)

Arrival

Time 2026-04-30 21:33
Airport Göteborg Landvetter Airport (ESGG)
Time Latitude Longitude Altitude Speed Heading
2026-04-30 19:22 53.36489 -2.27848 255 ft 0 kts 45°
2026-04-30 19:47 53.36488 -2.27850 255 ft 1 kts 45°
2026-04-30 19:48 53.36476 -2.27868 255 ft 3 kts 36°
2026-04-30 19:48 53.36461 -2.27889 255 ft 3 kts 46°
2026-04-30 19:48 53.36449 -2.27914 255 ft 3 kts 70°
2026-04-30 19:48 53.36446 -2.27944 255 ft 3 kts 107°
2026-04-30 19:49 53.36453 -2.27967 255 ft 1 kts 135°
2026-04-30 19:49 53.36480 -2.27996 255 ft 3 kts 158°
2026-04-30 19:49 53.36495 -2.28011 255 ft 3 kts 135°
2026-04-30 19:50 53.36507 -2.28030 255 ft 1 kts 135°
2026-04-30 19:50 53.36507 -2.28032 255 ft 0 kts 135°
2026-04-30 19:52 53.36498 -2.28019 255 ft 5 kts 144°
2026-04-30 19:52 53.36470 -2.27993 255 ft 4 kts 145°
2026-04-30 19:53 53.36410 -2.27934 255 ft 12 kts 181°
2026-04-30 19:53 53.36349 -2.28013 255 ft 11 kts 223°
2026-04-30 19:53 53.36289 -2.28068 255 ft 9 kts 195°
2026-04-30 19:53 53.36236 -2.28110 255 ft 8 kts 216°
2026-04-30 19:54 53.36193 -2.28152 255 ft 7 kts 200°
2026-04-30 19:54 53.36153 -2.28143 255 ft 5 kts 155°
2026-04-30 19:54 53.36128 -2.28107 255 ft 4 kts 135°
2026-04-30 19:54 53.36092 -2.28045 255 ft 10 kts 135°
2026-04-30 19:55 53.36042 -2.27971 255 ft 9 kts 140°
2026-04-30 19:55 53.35998 -2.27911 255 ft 8 kts 140°
2026-04-30 19:55 53.35958 -2.27865 255 ft 6 kts 153°
2026-04-30 19:55 53.35919 -2.27850 255 ft 5 kts 177°
2026-04-30 19:56 53.35886 -2.27855 255 ft 5 kts 185°
2026-04-30 19:56 53.35840 -2.27862 252 ft 8 kts 185°
2026-04-30 19:56 53.35771 -2.27872 248 ft 11 kts 185°
2026-04-30 19:56 53.35685 -2.27885 244 ft 14 kts 185°
2026-04-30 19:57 53.35570 -2.27905 238 ft 19 kts 186°
2026-04-30 19:57 53.35440 -2.27953 238 ft 20 kts 213°
2026-04-30 19:57 53.35334 -2.28119 238 ft 22 kts 224°
2026-04-30 19:57 53.35221 -2.28322 232 ft 25 kts 234°
2026-04-30 19:58 53.35105 -2.28562 228 ft 28 kts 231°
2026-04-30 19:58 53.34976 -2.28810 226 ft 29 kts 226°
2026-04-30 19:58 53.34828 -2.29067 218 ft 33 kts 226°
2026-04-30 19:58 53.34735 -2.29269 211 ft 0 kts 233°
2026-04-30 19:59 53.34703 -2.29311 210 ft 14 kts 215°
2026-04-30 19:59 53.34613 -2.29342 212 ft 12 kts 173°
2026-04-30 19:59 53.34558 -2.29186 217 ft 10 kts 53°
2026-04-30 20:00 53.34603 -2.29090 219 ft 11 kts 51°
2026-04-30 20:00 53.34719 -2.28852 222 ft 62 kts 51°
2026-04-30 20:00 53.35162 -2.27927 236 ft 138 kts 52°
2026-04-30 20:00 53.35861 -2.26501 570 ft 170 kts 50°
2026-04-30 20:01 53.37537 -2.23393 2025 ft 180 kts 54°
2026-04-30 20:01 53.38415 -2.21916 2614 ft 178 kts 53°
2026-04-30 20:01 53.39316 -2.20451 3060 ft 185 kts 52°
2026-04-30 20:02 53.40875 -2.16928 3694 ft 197 kts 81°
2026-04-30 20:02 53.41172 -2.14514 3909 ft 219 kts 84°
2026-04-30 20:03 53.41797 -2.08954 4746 ft 263 kts 83°
2026-04-30 20:03 53.42146 -2.05890 5527 ft 271 kts 83°
2026-04-30 20:03 53.42500 -2.02790 6488 ft 271 kts 83°
2026-04-30 20:03 53.42854 -1.99680 7333 ft 273 kts 83°
2026-04-30 20:04 53.43213 -1.96529 8122 ft 278 kts 83°
2026-04-30 20:04 53.43577 -1.93325 8888 ft 282 kts 83°
2026-04-30 20:04 53.43946 -1.90054 9671 ft 287 kts 83°
2026-04-30 20:05 53.43893 -1.83274 10686 ft 310 kts 103°
2026-04-30 20:05 53.43503 -1.79600 10997 ft 328 kts 104°
2026-04-30 20:05 53.42638 -1.72006 12389 ft 337 kts 104°
2026-04-30 20:06 53.42197 -1.68137 13155 ft 339 kts 104°
2026-04-30 20:06 53.41757 -1.64236 13925 ft 342 kts 104°
2026-04-30 20:06 53.41321 -1.60302 14587 ft 345 kts 104°
2026-04-30 20:06 53.40884 -1.56334 15204 ft 348 kts 104°
2026-04-30 20:07 53.40443 -1.52316 15811 ft 352 kts 104°
2026-04-30 20:07 53.39995 -1.48262 16398 ft 356 kts 104°
2026-04-30 20:07 53.39082 -1.40058 17580 ft 364 kts 103°
2026-04-30 20:08 53.38612 -1.35861 18156 ft 369 kts 103°
2026-04-30 20:08 53.38134 -1.31616 18709 ft 373 kts 103°
2026-04-30 20:08 53.37651 -1.27345 19240 ft 375 kts 104°
2026-04-30 20:08 53.37161 -1.23034 19797 ft 378 kts 104°
2026-04-30 20:09 53.36665 -1.18704 20344 ft 380 kts 104°
2026-04-30 20:09 53.36166 -1.14340 20905 ft 383 kts 104°
2026-04-30 20:09 53.35160 -1.05540 22013 ft 387 kts 104°
2026-04-30 20:10 53.35244 -0.96526 23009 ft 406 kts 75°
2026-04-30 20:10 53.36484 -0.92228 23504 ft 414 kts 64°
2026-04-30 20:10 53.37918 -0.88031 23960 ft 417 kts 64°
2026-04-30 20:11 53.40833 -0.79573 24759 ft 422 kts 64°
2026-04-30 20:11 53.42303 -0.75298 25146 ft 424 kts 64°
2026-04-30 20:11 53.43775 -0.71001 25538 ft 426 kts 64°
2026-04-30 20:12 53.46700 -0.62369 26269 ft 431 kts 64°
2026-04-30 20:12 53.48176 -0.57981 26632 ft 433 kts 64°
2026-04-30 20:12 53.49659 -0.53569 26988 ft 435 kts 64°
2026-04-30 20:13 53.51152 -0.49134 27335 ft 437 kts 64°
2026-04-30 20:13 53.52655 -0.44672 27682 ft 439 kts 64°
2026-04-30 20:13 53.54162 -0.40190 28017 ft 442 kts 64°
2026-04-30 20:13 53.55674 -0.35688 28355 ft 444 kts 64°
2026-04-30 20:14 53.57192 -0.31153 28684 ft 446 kts 64°
2026-04-30 20:14 53.58719 -0.26589 28999 ft 448 kts 64°
2026-04-30 20:14 53.60305 -0.22060 29301 ft 451 kts 62°
2026-04-30 20:14 53.61945 -0.17620 29599 ft 454 kts 61°
2026-04-30 20:15 53.63655 -0.13140 29895 ft 456 kts 60°
2026-04-30 20:15 53.65392 -0.08647 30171 ft 458 kts 60°
2026-04-30 20:15 53.67128 -0.04138 30425 ft 460 kts 61°
2026-04-30 20:15 53.68857 0.00411 30642 ft 461 kts 61°
2026-04-30 20:16 53.70572 0.04982 30891 ft 462 kts 61°
2026-04-30 20:16 53.72279 0.09579 31118 ft 463 kts 62°
2026-04-30 20:16 53.73984 0.14193 31333 ft 464 kts 62°
2026-04-30 20:16 53.75694 0.18824 31506 ft 466 kts 61°
2026-04-30 20:17 53.77410 0.23469 31778 ft 465 kts 61°
2026-04-30 20:17 53.79101 0.28046 32049 ft 465 kts 62°
2026-04-30 20:17 53.80811 0.32682 32326 ft 464 kts 62°
2026-04-30 20:17 53.82514 0.37311 32596 ft 463 kts 62°
2026-04-30 20:18 53.84215 0.41941 32872 ft 463 kts 62°
2026-04-30 20:18 53.85913 0.46565 33154 ft 462 kts 62°
2026-04-30 20:18 53.87607 0.51190 33429 ft 462 kts 62°
2026-04-30 20:18 53.89295 0.55808 33717 ft 460 kts 62°
2026-04-30 20:19 53.90977 0.60416 34041 ft 458 kts 62°
2026-04-30 20:19 53.92085 0.63455 34238 ft 457 kts 62°
2026-04-30 20:19 53.94295 0.69531 34568 ft 456 kts 62°
2026-04-30 20:19 53.95958 0.74115 34806 ft 456 kts 62°
2026-04-30 20:20 53.97621 0.78707 35034 ft 456 kts 62°
2026-04-30 20:20 53.99276 0.83291 35253 ft 455 kts 62°
2026-04-30 20:20 54.00931 0.87885 35450 ft 456 kts 62°
2026-04-30 20:20 54.02585 0.92476 35645 ft 456 kts 62°
2026-04-30 20:21 54.04241 0.97081 35843 ft 456 kts 62°
2026-04-30 20:21 54.05891 1.01687 36040 ft 455 kts 62°
2026-04-30 20:21 54.07514 1.06228 36218 ft 455 kts 61°
2026-04-30 20:21 54.09158 1.10835 36423 ft 455 kts 61°
2026-04-30 20:22 54.10797 1.15432 36613 ft 454 kts 61°
2026-04-30 20:22 54.12435 1.20036 36795 ft 454 kts 61°
2026-04-30 20:22 54.14073 1.24639 36965 ft 454 kts 61°
2026-04-30 20:22 54.15707 1.29240 37137 ft 454 kts 61°
2026-04-30 20:23 54.17338 1.33846 37292 ft 454 kts 61°
2026-04-30 20:23 54.20565 1.43000 37323 ft 453 kts 61°
2026-04-30 20:24 54.23845 1.52201 37330 ft 453 kts 60°
2026-04-30 20:24 54.27324 1.61221 37321 ft 455 kts 58°
2026-04-30 20:25 54.32628 1.74635 37332 ft 455 kts 58°
2026-04-30 20:26 54.37877 1.88217 37347 ft 456 kts 59°
2026-04-30 20:26 54.43019 2.01939 37355 ft 456 kts 60°
2026-04-30 20:27 54.49601 2.20461 37363 ft 456 kts 60°
2026-04-30 20:28 54.56235 2.39066 37372 ft 456 kts 60°
2026-04-30 20:30 54.64459 2.62349 37382 ft 456 kts 61°
2026-04-30 20:31 54.74282 2.90479 37388 ft 455 kts 60°
2026-04-30 20:32 54.82405 3.13939 37390 ft 456 kts 61°
2026-04-30 20:33 54.87266 3.28118 37389 ft 456 kts 60°
2026-04-30 20:34 54.92102 3.42317 37403 ft 455 kts 60°
2026-04-30 20:35 54.96903 3.56463 37406 ft 455 kts 60°
2026-04-30 20:35 55.01709 3.70708 37402 ft 455 kts 60°
2026-04-30 20:36 55.04902 3.80236 37407 ft 455 kts 60°
2026-04-30 20:37 55.09655 3.94461 37424 ft 453 kts 59°
2026-04-30 20:37 55.12821 4.03975 37429 ft 452 kts 60°
2026-04-30 20:38 55.15973 4.13493 37424 ft 452 kts 60°
2026-04-30 20:38 55.19116 4.23020 37428 ft 452 kts 60°
2026-04-30 20:39 55.23788 4.37279 37426 ft 452 kts 60°
2026-04-30 20:40 55.28461 4.51616 37441 ft 451 kts 59°
2026-04-30 20:40 55.31563 4.61173 37443 ft 450 kts 59°
2026-04-30 20:41 55.36173 4.75446 37444 ft 450 kts 59°
2026-04-30 20:41 55.39247 4.85017 37446 ft 449 kts 60°
2026-04-30 20:42 55.42310 4.94597 37456 ft 449 kts 60°
2026-04-30 20:43 55.46895 5.08979 37453 ft 449 kts 59°
2026-04-30 20:43 55.49921 5.18523 37454 ft 449 kts 60°
2026-04-30 20:44 55.54474 5.32967 37454 ft 449 kts 60°
2026-04-30 20:45 55.60507 5.52273 37458 ft 449 kts 60°
2026-04-30 20:45 55.63523 5.61945 37463 ft 448 kts 60°
2026-04-30 20:46 55.69490 5.81197 37472 ft 446 kts 60°
2026-04-30 20:47 55.73936 5.95687 37472 ft 446 kts 60°
2026-04-30 20:48 55.78331 6.10139 37474 ft 445 kts 60°
2026-04-30 20:48 55.81277 6.19814 37475 ft 445 kts 60°
2026-04-30 20:49 55.84209 6.29504 37479 ft 444 kts 60°
2026-04-30 20:50 55.88581 6.44040 37480 ft 444 kts 60°
2026-04-30 20:50 55.91460 6.53673 37479 ft 443 kts 60°
2026-04-30 20:51 55.94349 6.63384 37481 ft 443 kts 60°
2026-04-30 20:51 55.99166 6.77420 37479 ft 442 kts 55°
2026-04-30 20:52 56.02541 6.86585 37486 ft 441 kts 55°
2026-04-30 20:53 56.07460 7.00410 37487 ft 441 kts 56°
2026-04-30 20:53 56.10693 7.09745 37488 ft 441 kts 57°
2026-04-30 20:54 56.15538 7.23737 37477 ft 440 kts 56°
2026-04-30 20:55 56.20362 7.37689 37491 ft 440 kts 57°
2026-04-30 20:55 56.23577 7.47045 37495 ft 440 kts 57°
2026-04-30 20:56 56.28389 7.61089 37488 ft 439 kts 57°
2026-04-30 20:57 56.33156 7.75096 37487 ft 439 kts 57°
2026-04-30 20:57 56.36338 7.84495 37494 ft 439 kts 57°
2026-04-30 20:58 56.41095 7.98614 37491 ft 439 kts 57°
2026-04-30 20:58 56.44241 8.07977 37496 ft 439 kts 57°
2026-04-30 20:59 56.48985 8.22135 37494 ft 438 kts 56°
2026-04-30 21:00 56.55616 8.40550 37494 ft 438 kts 55°
2026-04-30 21:01 56.60579 8.54447 37485 ft 438 kts 56°
2026-04-30 21:02 56.65506 8.68425 37487 ft 438 kts 56°
2026-04-30 21:02 56.68781 8.77765 37488 ft 438 kts 56°
2026-04-30 21:03 56.72023 8.87047 37487 ft 438 kts 56°
2026-04-30 21:03 56.75282 8.96408 37483 ft 437 kts 56°
2026-04-30 21:04 56.78537 9.05781 37476 ft 437 kts 56°
2026-04-30 21:04 56.83398 9.19863 37470 ft 437 kts 56°
2026-04-30 21:05 56.86634 9.29283 37465 ft 437 kts 56°
2026-04-30 21:05 56.89839 9.38648 37472 ft 437 kts 56°
2026-04-30 21:06 56.93062 9.48098 37471 ft 437 kts 56°
2026-04-30 21:06 56.96276 9.57552 37468 ft 437 kts 56°
2026-04-30 21:07 56.99470 9.67013 37461 ft 437 kts 56°
2026-04-30 21:07 57.02644 9.76429 37455 ft 437 kts 56°
2026-04-30 21:08 57.05832 9.85924 37451 ft 437 kts 57°
2026-04-30 21:08 57.09005 9.95443 37445 ft 437 kts 57°
2026-04-30 21:09 57.11759 10.05346 37443 ft 439 kts 64°
2026-04-30 21:09 57.14206 10.15644 37454 ft 439 kts 64°
2026-04-30 21:10 57.16642 10.25951 37448 ft 439 kts 64°
2026-04-30 21:10 57.19071 10.36273 37440 ft 439 kts 64°
2026-04-30 21:11 57.21495 10.46612 36553 ft 443 kts 64°
2026-04-30 21:11 57.22709 10.51796 35482 ft 450 kts 64°
2026-04-30 21:11 57.23950 10.57114 34516 ft 452 kts 64°
2026-04-30 21:12 57.25190 10.62459 33447 ft 453 kts 64°
2026-04-30 21:12 57.26430 10.67819 32443 ft 453 kts 64°
2026-04-30 21:12 57.27664 10.73162 31577 ft 451 kts 64°
2026-04-30 21:12 57.28888 10.78475 30788 ft 447 kts 64°
2026-04-30 21:13 57.30094 10.83733 30044 ft 442 kts 64°
2026-04-30 21:13 57.31284 10.88946 29273 ft 437 kts 65°
2026-04-30 21:13 57.32459 10.94107 28520 ft 433 kts 65°
2026-04-30 21:13 57.33606 10.99149 27801 ft 429 kts 65°
2026-04-30 21:14 57.34758 11.04213 27096 ft 425 kts 65°
2026-04-30 21:14 57.35899 11.09239 26425 ft 422 kts 65°
2026-04-30 21:14 57.37030 11.14232 25762 ft 418 kts 65°
2026-04-30 21:14 57.38150 11.19192 25126 ft 415 kts 65°
2026-04-30 21:15 57.39256 11.24105 24504 ft 412 kts 65°
2026-04-30 21:15 57.40356 11.28995 23891 ft 410 kts 65°
2026-04-30 21:15 57.41445 11.33862 23199 ft 407 kts 65°
2026-04-30 21:15 57.42525 11.38696 22541 ft 404 kts 65°
2026-04-30 21:16 57.43598 11.43500 21941 ft 401 kts 65°
2026-04-30 21:16 57.44649 11.48203 21382 ft 399 kts 65°
2026-04-30 21:16 57.45705 11.52943 20817 ft 396 kts 65°
2026-04-30 21:16 57.46749 11.57653 20294 ft 393 kts 66°
2026-04-30 21:17 57.47782 11.62335 19770 ft 390 kts 66°
2026-04-30 21:17 57.48806 11.66987 19256 ft 388 kts 66°
2026-04-30 21:17 57.49826 11.71612 18746 ft 385 kts 66°
2026-04-30 21:17 57.50836 11.76212 18187 ft 383 kts 66°
2026-04-30 21:18 57.51836 11.80783 17633 ft 380 kts 66°
2026-04-30 21:18 57.52827 11.85328 17099 ft 378 kts 66°
2026-04-30 21:18 57.53797 11.89781 16577 ft 375 kts 66°
2026-04-30 21:18 57.54919 11.94122 16065 ft 371 kts 56°
2026-04-30 21:19 57.56536 11.97808 15556 ft 366 kts 42°
2026-04-30 21:19 57.58563 12.00604 15091 ft 361 kts 26°
2026-04-30 21:19 57.60908 12.01897 14959 ft 346 kts
2026-04-30 21:19 57.63272 12.02206 14825 ft 334 kts
2026-04-30 21:20 57.65546 12.02644 14701 ft 324 kts
2026-04-30 21:20 57.67757 12.03173 14465 ft 317 kts
2026-04-30 21:20 57.69939 12.03711 14123 ft 315 kts
2026-04-30 21:20 57.72105 12.04253 13722 ft 314 kts
2026-04-30 21:21 57.74214 12.04771 13520 ft 306 kts
2026-04-30 21:21 57.76306 12.05295 13246 ft 301 kts
2026-04-30 21:21 57.80425 12.06352 12545 ft 297 kts
2026-04-30 21:22 57.82473 12.06874 12289 ft 294 kts
2026-04-30 21:22 57.88621 12.08488 11258 ft 296 kts
2026-04-30 21:23 57.90632 12.09020 10906 ft 295 kts
2026-04-30 21:23 57.92680 12.09617 10541 ft 294 kts 11°
2026-04-30 21:23 57.96467 12.12370 9789 ft 293 kts 21°
2026-04-30 21:24 57.98206 12.14323 9390 ft 293 kts 38°
2026-04-30 21:24 57.99822 12.16596 9152 ft 282 kts 26°
2026-04-30 21:24 58.01521 12.18215 9247 ft 269 kts 24°
2026-04-30 21:24 58.03176 12.19786 9178 ft 264 kts 31°
2026-04-30 21:25 58.05142 12.25190 8870 ft 250 kts 79°
2026-04-30 21:25 58.05132 12.28388 8601 ft 248 kts 103°
2026-04-30 21:25 58.04449 12.31416 7999 ft 259 kts 127°
2026-04-30 21:26 58.01387 12.34805 7100 ft 263 kts 171°
2026-04-30 21:26 57.99583 12.35431 6721 ft 264 kts 171°
2026-04-30 21:27 57.96084 12.36640 6384 ft 246 kts 171°
2026-04-30 21:27 57.94416 12.37218 6145 ft 241 kts 171°
2026-04-30 21:27 57.92769 12.37789 5863 ft 240 kts 171°
2026-04-30 21:28 57.89500 12.38916 5061 ft 247 kts 172°
2026-04-30 21:28 57.87794 12.39500 4747 ft 242 kts 172°
2026-04-30 21:28 57.84652 12.40580 4710 ft 225 kts 172°
2026-04-30 21:29 57.83115 12.41108 4622 ft 224 kts 171°
2026-04-30 21:29 57.78787 12.39413 4165 ft 212 kts 210°
2026-04-30 21:30 57.76750 12.37555 3632 ft 187 kts 210°
2026-04-30 21:31 57.72961 12.34379 1862 ft 161 kts 214°
2026-04-30 21:31 57.71453 12.32824 1485 ft 138 kts 213°
2026-04-30 21:32 57.69836 12.31264 1073 ft 127 kts 211°
2026-04-30 21:32 57.69007 12.30470 929 ft 134 kts 206°
2026-04-30 21:32 57.68188 12.29736 699 ft 125 kts 207°
2026-04-30 21:32 57.67428 12.29023 543 ft 124 kts 207°
2026-04-30 21:33 57.67320 12.28920 530 ft 0 kts 206°
2026-04-30 21:33 57.67218 12.28827 532 ft 16 kts 206°
2026-04-30 21:33 57.67101 12.28718 531 ft 21 kts 206°
2026-04-30 21:34 57.66951 12.28578 527 ft 27 kts 207°
2026-04-30 21:34 57.66598 12.28380 523 ft 15 kts 124°
2026-04-30 21:34 57.66622 12.28439 524 ft 14 kts 17°
2026-04-30 21:35 57.66707 12.28549 524 ft 15 kts 52°
2026-04-30 21:35 57.66730 12.28610 525 ft 0 kts 55°
2026-04-30 21:37 57.66745 12.28649 525 ft 5 kts 55°
2026-04-30 21:37 57.66766 12.28707 525 ft 6 kts 55°
2026-04-30 21:38 57.66789 12.28767 526 ft 6 kts 55°
2026-04-30 21:38 57.66818 12.28820 526 ft 6 kts 44°
2026-04-30 21:38 57.66826 12.28888 526 ft 6 kts 97°
2026-04-30 21:38 57.66812 12.28960 526 ft 6 kts 111°
2026-04-30 21:39 57.66791 12.29033 526 ft 7 kts 119°
2026-04-30 21:39 57.66767 12.29112 526 ft 7 kts 119°
2026-04-30 21:39 57.66747 12.29180 526 ft 0 kts 119°
2026-04-30 21:40 57.66744 12.29196 526 ft 4 kts 108°
2026-04-30 21:40 57.66733 12.29252 526 ft 5 kts 119°
2026-04-30 21:40 57.66730 12.29262 526 ft 0 kts 119°
2026-04-30 21:40 57.66730 12.29265 526 ft 1 kts 119°
2026-04-30 21:41 57.66728 12.29272 526 ft 1 kts 119°